Flag for Switzerland Weather past 2 weeks in Liestal, Basel-Land, Switzerland

Now
34 °F

Passing clouds.


Feels Like: 34 °F
Forecast: 27 / 46 °F
Wind: 2 mph from North

Location: Bale-Mulhouse

Current Time: Mar 5, 2015 at 3:40:38 AM

Latest Report: Mar 5, 2015 at 3:00 AM


Visibility: N/A

Pressure: 30.51 "Hg

Humidity: 87%

Dew point: 30 °F

Location of LiestalLocation

Historic Weather in Liestal — Graph

°F

Liestal temperature yesterday

Maximum temperature yesterday: 46 °F (at 12:00 AM)
Minimum temperature yesterday: 32 °F (at 9:00 PM)
Average temperature yesterday: 40 °F

Past Weeks' High & Low Weather Summary

 TemperatureHumidityPressure
High61 °F (Feb 20, 4:00 PM)100% (Feb 22, 7:30 AM)30.69 "Hg (Feb 22, 7:30 AM)
Low28 °F (Feb 19, 4:30 AM)18% (Feb 20, 5:00 PM)29.56 "Hg (Feb 21, 6:30 AM)
Average40 °F78%30.04 "Hg
* Reported Feb 18 2:00 AM — Mar 5 2:30 AM, Liestal, Weather by CustomWeather, © 2015

Note: Actual official high and low records may vary slightly from our data, if they occured in-between our weather recording intervals... More about our weather records

Advertising

Liestal weather history for previous 24 hours

 ConditionsComfort  
Time TempWeatherWind HumidityBarometerVisibility
2:30 AM
Thu, Mar 5
34 °FPassing clouds.3 mph87%30.51 "HgN/A
2:00 AM34 °FMostly cloudy.3 mph87%30.51 "HgN/A
1:30 AM34 °FPassing clouds.2 mph87%30.51 "HgN/A
1:00 AM34 °FPassing clouds.5 mph87%30.51 "HgN/A
12:30 AM36 °FMostly cloudy.5 mph87%30.51 "HgN/A
12:00 AM32 °FPassing clouds.3 mph93%30.48 "HgN/A
11:30 PM
Wed, Mar 4
32 °FPassing clouds.2 mph93%30.48 "HgN/A
10:00 PM32 °FPartly cloudy.No wind93%30.45 "HgN/A
9:30 PM32 °FPassing clouds.2 mph93%30.45 "HgN/A
9:00 PM32 °FPassing clouds.1 mph93%30.45 "HgN/A
8:30 PM34 °FPassing clouds.1 mph87%30.42 "HgN/A
8:00 PM36 °FPassing clouds.1 mph87%30.42 "HgN/A
7:30 PM37 °FPassing clouds.2 mph81%30.39 "HgN/A
7:00 PM37 °FPassing clouds.3 mph81%30.39 "HgN/A
6:30 PM39 °FPassing clouds.3 mph75%30.36 "HgN/A
6:00 PM41 °FScattered clouds.5 mph76%30.36 "HgN/A
5:30 PM41 °FScattered clouds.3 mph76%30.36 "HgN/A
5:00 PM41 °FBroken clouds.3 mph70%30.36 "HgN/A
4:35 PM41 °FSprinkles. Broken clouds.8 mph76%30.36 "HgN/A
4:00 PM43 °FScattered showers. Broken clouds.9 mph61%30.36 "HgN/A
3:30 PM45 °FScattered showers. Broken clouds.8 mph57%30.33 "HgN/A
3:00 PM46 °FScattered showers. Broken clouds.6 mph50%30.33 "HgN/A
2:30 PM46 °FScattered showers. Broken clouds.9 mph53%30.33 "HgN/A
2:00 PM46 °FBroken clouds.8 mph53%30.33 "HgN/A
1:30 PM45 °FBroken clouds.10 mph61%30.33 "HgN/A
1:00 PM45 °FBroken clouds.9 mph57%30.36 "HgN/A
12:30 PM45 °FBroken clouds.8 mph57%30.36 "HgN/A
12:00 PM45 °FBroken clouds.7 mph57%30.36 "HgN/A
11:30 AM43 °FBroken clouds.7 mph76%30.36 "HgN/A
11:00 AM43 °FBroken clouds.6 mph71%30.36 "HgN/A
10:30 AM43 °FBroken clouds.7 mph71%30.36 "HgN/A
10:00 AM41 °FBroken clouds.7 mph81%30.33 "HgN/A
9:30 AM39 °FBroken clouds.3 mph87%30.33 "HgN/A
9:00 AM39 °FBroken clouds.3 mph87%30.33 "HgN/A
8:30 AM37 °FPartly sunny.2 mph87%30.33 "HgN/A
8:00 AM37 °FBroken clouds.5 mph87%30.30 "HgN/A
7:30 AM37 °FBroken clouds.7 mph87%30.30 "HgN/A
7:00 AM37 °FPartly cloudy.9 mph87%30.27 "HgN/A
6:30 AM37 °FPartly cloudy.9 mph87%30.27 "HgN/A
6:00 AM39 °FPassing clouds.9 mph81%30.27 "HgN/A
5:30 AM39 °FPassing clouds.12 mph81%30.27 "HgN/A
5:00 AM39 °FPartly cloudy.13 mph81%30.27 "HgN/A
4:00 AM39 °FOvercast.10 mph81%30.27 "HgN/A
3:30 AM39 °FMostly cloudy.10 mph87%30.24 "HgN/A
3:00 AM41 °FLight rain. Partly cloudy.8 mph87%30.24 "HgN/A
Weather by CustomWeather, © 2015

See weather overviewHow to use our weather pages